This is the latest recevied weather packets stored in our database for station/object DG3OBU-6. If no packets are shown the sender has not sent any weather packets the latest 10 day(s).
| Time | Temp. | Humidity | Pressure | Rain* | Wind** | Luminosity | Snow |
|---|---|---|---|---|---|---|---|
| 1777815003 | 24.44° C | 38% | 1008.5 hPa | 0 mm | - | - | - |
| 1777814703 | 25° C | 39% | 1008.6 hPa | 0 mm | - | - | - |
| 1777814403 | 25° C | 37% | 1008.6 hPa | 0 mm | - | - | - |
| 1777814103 | 25° C | 38% | 1008.7 hPa | 0 mm | - | - | - |
| 1777813803 | 25.56° C | 37% | 1008.8 hPa | 0 mm | - | - | - |
| 1777813503 | 25.56° C | 37% | 1008.7 hPa | 0 mm | - | - | - |
| 1777813203 | 25° C | 38% | 1008.8 hPa | 0 mm | - | - | - |
| 1777812903 | 25° C | 37% | 1008.8 hPa | 0 mm | - | - | - |
| 1777812602 | 25° C | 38% | 1008.9 hPa | 0 mm | - | - | - |
| 1777812302 | 25° C | 38% | 1009 hPa | 0 mm | - | - | - |
| 1777812002 | 25.56° C | 37% | 1009 hPa | 0 mm | - | - | - |
| 1777811702 | 25° C | 38% | 1009 hPa | 0 mm | - | - | - |
| 1777811402 | 25.56° C | 36% | 1009 hPa | 0 mm | - | - | - |
| 1777811102 | 26.11° C | 39% | 1008.9 hPa | 0 mm | - | - | - |
| 1777810802 | 26.11° C | 39% | 1008.9 hPa | 0 mm | - | - | - |
| 1777810502 | 25.56° C | 42% | 1008.9 hPa | 0 mm | - | - | - |
| 1777810202 | 26.11° C | 39% | 1009.1 hPa | 0 mm | - | - | - |
| 1777809902 | 25.56° C | 43% | 1009 hPa | 0 mm | - | - | - |
| 1777809602 | 25° C | 41% | 1009.2 hPa | 0 mm | - | - | - |
| 1777809302 | 25° C | 41% | 1009.2 hPa | 0 mm | - | - | - |
| 1777809003 | 25° C | 42% | 1009.3 hPa | 0 mm | - | - | - |
| 1777808703 | 25° C | 42% | 1009.3 hPa | 0 mm | - | - | - |
| 1777808403 | 25° C | 44% | 1009.4 hPa | 0 mm | - | - | - |
| 1777808103 | 24.44° C | 44% | 1009.6 hPa | 0 mm | - | - | - |
| 1777807803 | 23.89° C | 45% | 1009.6 hPa | 0 mm | - | - | - |
* Rain latest hour (hover to see other rain measurements)
** Current wind speed in m/s (hover to see current wind gust speed)